Location: Lansingburgh
(42.7845°N, 73.6696°W)
Time: 04:26:09
(UTC+00:00)

FengYun 1-2 T - Pass Details

Date: 24 January 2020
Orbit: 846 x 881 km, 98.7° (Epoch: 19 February)

Event Time Altitude Azimuth Distance (km) Brightness Sun altitude
Rises 22:57:55 0° 163° (SSE) 3,449 7.4 -11.3°
Reaches altitude 10° 23:00:17 10° 163° (SSE) 2,519 6.7 -11.7°
Maximum altitude 23:05:55 87° 74° (ENE) 886 4.3 -12.7°
Drops below altitude 10° 23:11:36 10° 347° (NNW) 2,548 6.7 -13.7°
Sets 23:14:01 0° 347° (NNW) 3,492 7.4 -14.2°
